"startDT [UTC]","vpos","CH4 [ppm]","stdev(CH4) [ppm]","CO2 [ppm]","stdev(CO2) [ppm]","H2O [ppm]","stdev(H2O)","p_LGR [torr]","T_LGR [C]","mt1_LGR [us]","mt2_LGR [us]","T_ECpre [C]","T_EC1 [C]","T_EC2 [C]","p_inlet [hPa]","p_in [hPa]","p_out [hPa]","T_inlet [C]","RH_inlet [%]","dwpt_inlet [C]","T_vent [C]","RH_vent [%]","dwpt_vent [C]","flow_vent [l min-1]","flow_inlet [l min-1]","dwpt_sample [C]","T_room [C]"
2012-05-01 00:00:00,0.0,1.9052,0.0010,403.39,0.33,157.5,35.2,138.12,28.09,24.61,36.31,0.04,-272.73,-272.74,-54,561,-940,22.7,3.6,-22.6,22.9,3.7,-22.2,5.73,2.49,-25.4,28.0
2012-05-01 00:01:00,0.0,1.9051,0.0010,403.29,0.33,161.0,43.9,138.12,28.10,24.61,36.32,0.04,-272.73,-272.74,-54,561,-939,22.7,3.6,-22.6,23.0,3.7,-22.1,5.73,2.32,-25.4,28.0
2012-05-01 00:02:00,0.0,1.9050,0.0011,403.34,0.37,153.3,38.6,138.12,28.10,24.61,36.32,0.04,-272.74,-272.74,-54,561,-939,22.7,3.6,-22.5,23.0,3.7,-22.1,5.73,2.42,-25.4,28.1
2012-05-01 00:03:00,0.0,1.9050,0.0010,403.28,0.33,152.3,37.5,138.12,28.10,24.61,36.32,0.04,-272.74,-272.74,-54,561,-940,22.7,3.6,-22.5,23.0,3.7,-22.0,5.73,2.43,-25.4,28.1
2012-05-01 00:04:00,0.0,1.9053,0.0010,403.33,0.33,169.9,36.1,138.12,28.11,24.61,36.32,0.04,-272.73,-272.74,-54,562,-939,22.7,3.7,-22.4,23.0,3.8,-21.9,5.73,2.32,-25.4,28.0
2012-05-01 00:05:00,0.0,1.9049,0.0010,403.28,0.32,165.4,42.3,138.12,28.12,24.61,36.33,0.04,-272.74,-272.74,-54,561,-940,22.7,3.7,-22.4,23.0,3.8,-21.9,5.73,2.50,-25.4,28.0
2012-05-01 00:06:00,0.0,1.9046,0.0012,403.41,0.36,156.2,37.4,138.12,28.12,24.61,36.31,0.04,-272.74,-272.74,-54,562,-940,22.7,3.7,-22.4,23.0,3.8,-21.9,5.73,2.30,-25.4,28.0
2012-05-01 00:07:00,0.0,1.9048,0.0009,403.23,0.34,151.1,39.5,138.12,28.13,24.61,36.32,0.04,-272.73,-272.74,-54,562,-940,22.7,3.7,-22.4,23.0,3.8,-21.9,5.73,2.45,-25.4,28.0
2012-05-01 00:08:00,0.0,1.9047,0.0009,403.29,0.36,158.2,39.1,138.12,28.13,24.61,36.33,0.04,-272.73,-272.73,-54,562,-940,22.8,3.7,-22.3,23.0,3.8,-21.9,5.73,2.39,-25.4,28.0
2012-05-01 00:09:00,0.0,1.9044,0.0010,403.39,0.33,165.6,38.0,138.12,28.14,24.62,36.32,0.04,-272.74,-272.73,-54,562,-940,22.7,3.7,-22.3,23.0,3.8,-21.9,5.73,2.34,-25.4,27.9
2012-05-01 00:10:00,0.0,1.9047,0.0012,403.30,0.32,159.0,41.0,138.12,28.14,24.61,36.33,0.04,-272.74,-272.74,-54,562,-940,22.8,3.7,-22.2,23.0,3.8,-21.8,5.73,2.49,-25.4,28.0
2012-05-01 00:11:00,0.0,1.9047,0.0011,403.32,0.34,162.3,41.5,138.12,28.14,24.61,36.32,0.04,-272.73,-272.74,-54,562,-940,22.8,3.7,-22.2,23.0,3.8,-21.7,5.73,2.29,-25.4,28.0
2012-05-01 00:12:00,0.0,1.9045,0.0013,403.36,0.40,160.3,40.7,138.12,28.14,24.61,36.32,0.04,-272.73,-272.74,-54,562,-940,22.8,3.7,-22.3,23.0,3.8,-21.9,5.73,2.48,-25.3,28.0
2012-05-01 00:13:00,0.0,1.9049,0.0010,403.29,0.36,161.9,47.0,138.12,28.15,24.61,36.33,0.04,-272.74,-272.74,-54,562,-940,22.8,3.7,-22.3,23.0,3.8,-21.9,5.73,2.34,-25.3,28.0
2012-05-01 00:14:00,0.0,1.9045,0.0010,403.43,0.29,158.7,37.2,138.12,28.15,24.61,36.32,0.04,-272.73,-272.74,-54,562,-939,22.8,3.7,-22.3,23.0,3.8,-21.9,5.73,2.38,-25.3,28.1
2012-05-01 00:15:00,0.0,1.9048,0.0011,403.30,0.39,153.9,29.6,138.12,28.16,24.61,36.32,0.04,-272.73,-272.73,-54,562,-939,22.8,3.7,-22.4,23.1,3.8,-21.9,5.73,2.46,-25.3,28.1
2012-05-01 00:16:00,0.0,1.9045,0.0010,403.36,0.35,172.2,32.8,138.12,28.16,24.61,36.32,0.04,-272.74,-272.74,-54,562,-939,22.9,3.6,-22.4,23.1,3.7,-22.0,5.73,2.29,-25.3,28.1
2012-05-01 00:17:00,0.0,1.9048,0.0009,403.44,0.30,169.7,43.2,138.12,28.17,24.61,36.32,0.04,-272.74,-272.74,-54,562,-940,22.9,3.7,-22.4,23.1,3.7,-21.9,5.73,2.50,-25.3,28.1
2012-05-01 00:18:00,0.0,1.9047,0.0010,403.32,0.32,161.8,35.9,138.12,28.17,24.61,36.33,0.04,-272.73,-272.74,-54,562,-940,22.9,3.7,-22.3,23.1,3.8,-21.9,5.73,2.31,-25.3,28.1
2012-05-01 00:19:00,0.0,1.9045,0.0011,403.35,0.38,162.9,38.3,138.12,28.18,24.62,36.32,0.04,-272.74,-272.74,-54,562,-940,22.9,3.7,-22.3,23.1,3.8,-21.9,5.73,2.43,-25.3,28.1
2012-05-01 00:20:00,0.0,1.9045,0.0009,403.34,0.35,172.3,38.3,138.12,28.18,24.62,36.32,0.04,-272.74,-272.73,-54,562,-939,22.9,3.7,-22.3,23.1,3.8,-21.8,5.73,2.41,-25.3,28.1
2012-05-01 00:21:00,0.0,1.9043,0.0010,403.39,0.33,154.1,46.1,138.12,28.19,24.62,36.32,0.04,-272.74,-272.73,-54,562,-940,22.9,3.7,-22.2,23.1,3.8,-21.7,5.73,2.32,-25.3,28.1
2012-05-01 00:22:00,0.0,1.9045,0.0010,403.30,0.41,167.5,42.4,138.12,28.19,24.62,36.32,0.04,-272.73,-272.74,-54,562,-940,22.9,3.7,-22.2,23.1,3.8,-21.7,5.73,2.49,-25.3,28.1
2012-05-01 00:23:00,0.0,1.9047,0.0011,403.32,0.35,161.6,38.5,138.12,28.19,24.61,36.32,0.04,-272.74,-272.74,-54,562,-940,22.9,3.7,-22.2,23.1,3.8,-21.8,5.73,2.29,-25.3,28.1
2012-05-01 00:24:00,0.0,1.9048,0.0010,403.34,0.38,161.7,33.8,138.12,28.20,24.61,36.32,0.04,-272.73,-272.74,-54,562,-940,22.9,3.7,-22.1,23.1,3.8,-21.6,5.73,2.46,-25.3,28.1
2012-05-01 00:25:00,0.0,1.9047,0.0010,403.36,0.31,159.6,38.2,138.12,28.20,24.61,36.32,0.04,-272.73,-272.74,-54,562,-940,22.9,3.8,-22.0,23.1,3.9,-21.6,5.73,2.37,-25.3,28.1
2012-05-01 00:26:00,0.0,1.9047,0.0010,403.42,0.34,158.1,34.0,138.12,28.21,24.61,36.32,0.04,-272.73,-272.73,-54,562,-940,22.9,3.8,-22.0,23.1,3.9,-21.6,5.73,2.35,-25.3,28.1
2012-05-01 00:27:00,0.0,1.9050,0.0010,403.43,0.40,162.2,39.0,138.12,28.22,24.61,36.32,0.04,-272.73,-272.74,-54,562,-940,22.9,3.8,-22.0,23.1,3.8,-21.6,5.73,2.48,-25.3,28.1
2012-05-01 00:28:00,0.0,1.9049,0.0011,403.26,0.37,161.4,36.4,138.11,28.22,24.61,36.33,0.04,-272.73,-272.74,-54,562,-940,22.9,3.7,-22.2,23.1,3.8,-21.7,5.73,2.29,-25.3,28.1
2012-05-01 00:29:00,0.0,1.9047,0.0010,403.42,0.40,175.8,41.0,138.11,28.22,24.61,36.32,0.04,-272.73,-272.74,-54,562,-940,22.9,3.7,-22.2,23.1,3.8,-21.8,5.73,2.47,-25.3,28.1
2012-05-01 00:30:00,0.0,1.9042,0.0010,403.41,0.45,167.3,38.4,138.11,28.23,24.61,36.32,0.04,-272.74,-272.74,-55,562,-940,22.9,3.6,-22.4,23.2,3.7,-21.9,5.73,2.36,-25.2,28.1
2012-05-01 00:31:00,0.0,1.9049,0.0011,403.42,0.34,160.0,36.1,138.12,28.23,24.61,36.32,0.04,-272.74,-272.73,-54,562,-940,22.9,3.6,-22.6,23.2,3.7,-22.1,5.73,2.36,-25.2,28.2
2012-05-01 00:32:00,0.0,1.9046,0.0012,403.28,0.44,180.8,34.8,138.11,28.24,24.62,36.32,0.04,-272.73,-272.73,-55,563,-940,23.0,3.6,-22.5,23.2,3.7,-22.0,5.73,2.47,-25.2,28.2
2012-05-01 00:33:00,0.0,1.9045,0.0011,403.42,0.32,167.0,41.1,138.11,28.25,24.61,36.32,0.04,-272.74,-272.74,-54,562,-940,23.0,3.6,-22.5,23.2,3.7,-22.1,5.73,2.29,-25.2,28.2
2012-05-01 00:34:00,0.0,1.9046,0.0011,403.27,0.37,168.0,39.9,138.12,28.25,24.61,36.33,0.04,-272.74,-272.74,-54,563,-940,23.0,3.5,-22.6,23.2,3.6,-22.2,5.73,2.47,-25.2,28.2
2012-05-01 00:35:00,0.0,1.9047,0.0010,403.38,0.39,161.7,46.4,138.11,28.26,24.62,36.32,0.04,-272.73,-272.73,-54,562,-940,23.0,3.5,-22.6,23.2,3.6,-22.3,5.73,2.36,-25.2,28.2
2012-05-01 00:36:00,0.0,1.9044,0.0010,403.16,0.35,159.0,39.1,138.11,28.26,24.62,36.33,0.04,-272.74,-272.74,-54,563,-940,23.0,3.5,-22.7,23.2,3.6,-22.2,5.73,2.36,-25.2,28.2
2012-05-01 00:37:00,0.0,1.9047,0.0010,403.29,0.36,175.1,37.0,138.11,28.27,24.62,36.33,0.04,-272.73,-272.74,-54,563,-940,23.0,3.6,-22.5,23.2,3.6,-22.2,5.73,2.48,-25.2,28.2
2012-05-01 00:38:00,0.0,1.9044,0.0012,403.27,0.39,171.4,39.3,138.11,28.27,24.62,36.33,0.04,-272.73,-272.73,-54,563,-940,23.0,3.6,-22.5,23.2,3.7,-22.1,5.73,2.29,-25.2,28.2
2012-05-01 00:39:00,0.0,1.9044,0.0010,403.23,0.43,170.6,37.7,138.11,28.28,24.62,36.33,0.04,-272.73,-272.74,-55,563,-940,23.0,3.6,-22.4,23.2,3.7,-22.0,5.73,2.46,-25.2,28.2
2012-05-01 00:40:00,0.0,1.9042,0.0010,403.28,0.36,165.1,37.8,138.11,28.28,24.62,36.32,0.04,-272.74,-272.74,-54,563,-940,23.0,3.6,-22.4,23.2,3.7,-22.0,5.73,2.38,-25.2,28.3
2012-05-01 00:41:00,0.0,1.9043,0.0010,403.30,0.42,171.1,35.9,138.11,28.29,24.62,36.32,0.04,-272.74,-272.74,-55,563,-940,23.0,3.6,-22.4,23.2,3.7,-22.0,5.73,2.34,-25.2,28.3
2012-05-01 00:42:00,0.0,1.9047,0.0012,403.26,0.41,164.3,40.9,138.11,28.29,24.61,36.33,0.04,-272.73,-272.74,-54,563,-940,23.0,3.6,-22.4,23.3,3.7,-22.0,5.73,2.48,-25.2,28.3
2012-05-01 00:43:00,0.0,1.9043,0.0010,403.29,0.39,170.9,41.7,138.11,28.30,24.62,36.33,0.04,-272.74,-272.74,-54,563,-940,23.0,3.6,-22.5,23.3,3.7,-22.1,5.73,2.29,-25.2,28.3
2012-05-01 00:44:00,0.0,1.9042,0.0011,403.19,0.37,174.9,41.0,138.11,28.30,24.62,36.33,0.04,-272.74,-272.74,-54,563,-940,23.0,3.6,-22.5,23.3,3.6,-22.1,5.73,2.45,-25.2,28.3
2012-05-01 00:45:00,0.0,1.9048,0.0010,403.26,0.41,171.5,43.6,138.11,28.31,24.62,36.33,0.04,-272.73,-272.73,-54,563,-940,23.0,3.5,-22.6,23.3,3.6,-22.2,5.73,2.40,-25.2,28.3
2012-05-01 00:46:00,0.0,1.9043,0.0009,403.34,0.35,178.0,38.1,138.11,28.32,24.62,36.33,0.04,-272.74,-272.74,-54,563,-940,23.0,3.5,-22.6,23.3,3.6,-22.2,5.73,2.32,-25.2,28.3
2012-05-01 00:47:00,0.0,1.9046,0.0009,403.30,0.36,173.0,39.0,138.11,28.32,24.62,36.33,0.04,-272.74,-272.73,-54,563,-940,23.0,3.6,-22.5,23.3,3.7,-22.1,5.73,2.49,-25.1,28.4
2012-05-01 00:48:00,0.0,1.9042,0.0011,403.19,0.35,167.9,38.1,138.11,28.33,24.62,36.33,0.04,-272.74,-272.74,-55,563,-940,23.1,3.6,-22.3,23.3,3.7,-22.0,5.73,2.31,-25.1,28.4
2012-05-01 00:49:00,0.0,1.9048,0.0010,403.16,0.37,172.1,44.8,138.11,28.33,24.62,36.34,0.04,-272.73,-272.74,-54,563,-940,23.1,3.6,-22.4,23.3,3.7,-22.0,5.73,2.41,-25.1,28.4
2012-05-01 00:50:00,0.0,1.9044,0.0010,403.23,0.37,176.4,43.2,138.11,28.34,24.62,36.33,0.04,-272.74,-272.74,-55,563,-940,23.1,3.6,-22.4,23.3,3.7,-22.0,5.73,2.42,-25.1,28.1
2012-05-01 00:51:00,0.0,1.9044,0.0011,403.23,0.38,155.5,43.4,138.12,28.34,24.62,36.33,0.04,-272.74,-272.74,-54,563,-940,23.1,3.6,-22.4,23.3,3.7,-22.0,5.73,2.41,-25.3,27.3
2012-05-01 00:52:00,0.0,1.9046,0.0009,403.29,0.39,148.7,43.0,138.12,28.34,24.62,36.33,0.04,-272.73,-272.73,-54,563,-940,23.1,3.6,-22.3,23.2,3.7,-22.0,5.73,2.32,-25.4,26.8
2012-05-01 00:53:00,0.0,1.9043,0.0012,403.40,0.41,131.6,35.9,138.13,28.33,24.62,36.32,0.04,-272.74,-272.74,-55,563,-941,23.0,3.6,-22.4,23.1,3.7,-22.0,5.73,2.37,-25.6,26.5
2012-05-01 00:54:00,0.0,1.9046,0.0011,403.16,0.31,110.6,35.8,138.13,28.31,24.62,36.32,0.04,-272.73,-272.74,-55,563,-940,22.9,3.6,-22.4,23.0,3.7,-22.1,5.73,2.39,-25.9,26.0
2012-05-01 00:55:00,0.0,1.9042,0.0011,403.08,0.32,105.4,40.1,138.14,28.29,24.62,36.31,0.04,-272.73,-272.74,-55,562,-940,22.9,3.6,-22.5,23.0,3.7,-22.1,5.73,2.40,-26.1,25.8
2012-05-01 00:56:00,0.0,1.9043,0.0010,402.85,0.36,76.8,35.6,138.15,28.27,24.62,36.32,0.04,-272.73,-272.74,-55,561,-940,22.8,3.6,-22.5,22.9,3.7,-22.2,5.73,2.40,-26.3,25.7
2012-05-01 00:57:00,0.0,1.9029,0.0010,402.73,0.36,65.8,38.1,138.15,28.24,24.62,36.32,0.04,-272.74,-272.74,-55,561,-940,22.7,3.6,-22.6,22.8,3.7,-22.2,5.73,2.40,-26.5,25.5
2012-05-01 00:58:00,0.0,1.9029,0.0010,402.67,0.34,47.9,32.8,138.16,28.21,24.61,36.32,0.04,-272.74,-272.74,-55,560,-940,22.7,3.6,-22.6,22.7,3.7,-22.3,5.73,2.42,-26.7,25.5
2012-05-01 00:59:00,0.0,1.9015,0.0011,402.77,0.35,53.5,35.4,138.16,28.18,24.62,36.31,0.04,-272.73,-272.73,-55,560,-940,22.6,3.6,-22.6,22.6,3.7,-22.3,5.73,2.40,-26.7,26.1
2012-05-01 01:00:00,0.0,1.9021,0.0010,402.65,0.42,44.2,33.6,138.16,28.16,24.61,36.32,0.04,-272.74,-272.74,-55,560,-940,22.5,3.6,-22.6,22.6,3.7,-22.3,5.73,2.50,-26.7,26.5
2012-05-01 01:01:00,0.0,1.9019,0.0013,402.67,0.35,56.2,36.0,138.15,28.14,24.61,36.31,0.04,-272.74,-272.73,-55,560,-940,22.5,3.7,-22.5,22.6,3.8,-22.2,5.73,2.37,-26.6,26.8
2012-05-01 01:02:00,0.0,1.9018,0.0010,402.56,0.39,61.3,44.6,138.15,28.12,24.61,36.31,0.04,-272.73,-272.74,-55,559,-939,22.5,3.7,-22.6,22.6,3.8,-22.2,5.73,2.37,-26.5,26.9
2012-05-01 01:03:00,0.0,1.9019,0.0010,402.60,0.35,62.5,39.3,138.15,28.11,24.61,36.31,0.04,-272.74,-272.74,-54,559,-939,22.4,3.7,-22.6,22.6,3.8,-22.2,5.73,2.46,-26.5,27.0
2012-05-01 01:04:00,0.0,1.9024,0.0011,402.59,0.37,74.6,35.3,138.14,28.10,24.61,36.31,0.04,-272.74,-272.74,-55,559,-939,22.4,3.7,-22.6,22.6,3.8,-22.1,5.73,2.34,-26.4,27.1
2012-05-01 01:05:00,0.0,1.9024,0.0011,402.66,0.31,78.3,36.3,138.14,28.10,24.61,36.31,0.04,-272.73,-272.74,-54,559,-939,22.4,3.7,-22.6,22.6,3.8,-22.2,5.73,2.45,-26.3,27.2
2012-05-01 01:06:00,0.0,1.9027,0.0010,402.66,0.40,74.7,35.7,138.14,28.09,24.61,36.32,0.04,-272.74,-272.74,-55,559,-939,22.4,3.7,-22.6,22.6,3.8,-22.1,5.73,2.34,-26.2,27.3
2012-05-01 01:07:00,0.0,1.9028,0.0011,402.59,0.33,85.1,38.5,138.14,28.09,24.61,36.32,0.04,-272.74,-272.74,-54,559,-939,22.3,3.7,-22.6,22.6,3.8,-22.1,5.73,2.43,-26.2,27.3
2012-05-01 01:08:00,0.0,1.9030,0.0010,402.77,0.37,91.1,37.4,138.14,28.09,24.61,36.32,0.04,-272.73,-272.73,-54,558,-939,22.3,3.7,-22.6,22.6,3.8,-22.1,5.73,2.39,-26.2,27.3
2012-05-01 01:09:00,0.0,1.9031,0.0009,402.70,0.30,97.8,38.8,138.14,28.09,24.61,36.32,0.04,-272.74,-272.74,-56,559,-940,22.3,3.6,-22.8,22.6,3.7,-22.3,5.73,2.38,-26.1,27.4
2012-05-01 01:10:00,0.0,1.9031,0.0010,402.81,0.37,111.9,42.0,138.13,28.09,24.61,36.31,0.04,-272.74,-272.74,-54,558,-939,22.3,3.7,-22.7,22.6,3.7,-22.3,5.73,2.43,-26.0,27.3
2012-05-01 01:11:00,0.0,1.9036,0.0010,402.86,0.38,102.2,48.3,138.13,28.09,24.61,36.31,0.04,-272.74,-272.74,-54,559,-939,22.4,3.7,-22.7,22.6,3.8,-22.2,5.73,2.33,-26.0,27.3
2012-05-01 01:12:00,0.0,1.9035,0.0010,402.95,0.36,115.6,37.5,138.13,28.09,24.62,36.31,0.04,-272.74,-272.74,-54,558,-939,22.4,3.7,-22.7,22.6,3.8,-22.2,5.73,2.48,-25.9,27.4
2012-05-01 01:13:00,0.0,1.9038,0.0010,402.94,0.34,123.0,48.9,138.13,28.10,24.61,36.31,0.04,-272.74,-272.74,-54,558,-939,22.4,3.7,-22.6,22.6,3.8,-22.2,5.73,2.29,-25.9,27.4
2012-05-01 01:14:00,0.0,1.9038,0.0010,402.98,0.36,125.0,40.7,138.13,28.10,24.61,36.32,0.04,-272.74,-272.74,-54,558,-939,22.3,3.7,-22.6,22.6,3.8,-22.1,5.73,2.50,-25.9,27.5
2012-05-01 01:15:00,0.0,1.9036,0.0010,402.95,0.40,128.2,37.5,138.13,28.11,24.61,36.32,0.04,-272.73,-272.74,-54,559,-939,22.4,3.7,-22.5,22.6,3.8,-22.0,5.73,2.29,-25.8,27.5
2012-05-01 01:16:00,0.0,1.9041,0.0010,403.06,0.35,130.4,42.8,138.13,28.11,24.61,36.32,0.04,-272.74,-272.73,-54,558,-939,22.4,3.7,-22.4,22.7,3.8,-22.0,5.73,2.49,-25.8,27.5
2012-05-01 01:17:00,0.0,1.9042,0.0011,403.18,0.33,131.3,41.0,138.13,28.11,24.61,36.31,0.04,-272.74,-272.74,-54,558,-938,22.4,3.7,-22.4,22.7,3.8,-21.9,5.73,2.33,-25.8,27.5
2012-05-01 01:18:00,0.0,1.9040,0.0011,403.11,0.32,123.5,42.3,138.13,28.12,24.61,36.32,0.04,-272.73,-272.73,-55,558,-939,22.4,3.8,-22.3,22.7,3.9,-21.8,5.73,2.43,-25.7,27.6
2012-05-01 01:19:00,0.0,1.9041,0.0012,403.27,0.35,139.1,35.0,138.12,28.12,24.61,36.31,0.04,-272.74,-272.74,-54,559,-940,22.4,3.7,-22.5,22.7,3.8,-22.0,5.73,2.41,-25.7,27.6
2012-05-01 01:20:00,0.0,1.9045,0.0011,403.20,0.38,143.5,34.7,138.13,28.13,24.61,36.32,0.04,-272.74,-272.74,-55,557,-939,22.4,3.7,-22.6,22.7,3.8,-22.1,5.73,2.34,-25.7,27.6
2012-05-01 01:21:00,0.0,1.9043,0.0011,403.19,0.32,150.6,34.4,138.12,28.13,24.61,36.32,0.04,-272.74,-272.74,-54,559,-938,22.4,3.7,-22.6,22.7,3.8,-22.2,5.73,2.48,-25.6,27.7
2012-05-01 01:22:00,0.0,1.9044,0.0011,403.24,0.35,149.1,43.0,138.12,28.14,24.62,36.32,0.04,-272.73,-272.73,-54,559,-939,22.5,3.7,-22.5,22.7,3.8,-22.1,5.73,2.29,-25.6,27.8
2012-05-01 01:23:00,0.0,1.9047,0.0012,403.20,0.37,152.2,48.5,138.12,28.14,24.61,36.32,0.04,-272.74,-272.74,-54,559,-939,22.5,3.7,-22.6,22.8,3.8,-22.1,5.73,2.50,-25.6,27.8
2012-05-01 01:24:00,0.0,1.9044,0.0010,403.23,0.34,153.2,38.0,138.12,28.15,24.61,36.32,0.04,-272.74,-272.74,-54,559,-939,22.5,3.7,-22.6,22.8,3.8,-22.1,5.73,2.31,-25.5,27.9
2012-05-01 01:25:00,0.0,1.9043,0.0010,403.26,0.30,163.3,40.9,138.12,28.15,24.61,36.32,0.04,-272.74,-272.73,-54,559,-939,22.5,3.7,-22.5,22.8,3.8,-22.0,5.73,2.44,-25.5,27.8
2012-05-01 01:26:00,0.0,1.9044,0.0008,403.41,0.38,145.0,40.4,138.12,28.16,24.61,36.31,0.04,-272.73,-272.74,-54,559,-939,22.5,3.7,-22.5,22.8,3.8,-22.0,5.73,2.40,-25.5,27.8
2012-05-01 01:27:00,0.0,1.9047,0.0009,403.27,0.36,150.8,38.6,138.12,28.16,24.61,36.33,0.04,-272.74,-272.74,-54,559,-939,22.6,3.6,-22.6,22.8,3.7,-22.1,5.73,2.33,-25.5,27.8
2012-05-01 01:28:00,0.0,1.9045,0.0010,403.31,0.34,153.9,40.1,138.12,28.17,24.61,36.32,0.04,-272.73,-272.74,-54,559,-939,22.6,3.7,-22.5,22.8,3.8,-22.1,5.73,2.49,-25.4,27.8
2012-05-01 01:29:00,0.0,1.9045,0.0010,403.30,0.36,163.6,34.0,138.12,28.18,24.62,36.32,0.04,-272.73,-272.73,-54,559,-939,22.6,3.6,-22.6,22.8,3.7,-22.1,5.73,2.29,-25.4,27.9
2012-05-01 01:30:00,0.0,1.9049,0.0009,403.24,0.36,156.8,45.4,138.12,28.18,24.61,36.32,0.04,-272.74,-272.74,-54,559,-939,22.7,3.6,-22.7,22.9,3.7,-22.2,5.73,2.47,-25.4,27.9
2012-05-01 01:31:00,0.0,1.9048,0.0010,403.29,0.39,153.4,39.4,138.12,28.19,24.61,36.33,0.04,-272.74,-272.74,-54,559,-939,22.7,3.6,-22.7,22.9,3.7,-22.3,5.73,2.37,-25.3,27.8
2012-05-01 01:32:00,0.0,1.9049,0.0011,403.36,0.37,153.4,36.0,138.12,28.20,24.61,36.32,0.04,-272.73,-272.74,-54,560,-939,22.7,3.6,-22.7,22.9,3.7,-22.2,5.73,2.35,-25.3,27.8
2012-05-01 01:33:00,0.0,1.9046,0.0010,403.27,0.35,159.5,32.2,138.12,28.20,24.62,36.32,0.04,-272.74,-272.74,-54,559,-939,22.7,3.6,-22.7,22.9,3.7,-22.2,5.73,2.48,-25.3,27.9
2012-05-01 01:34:00,0.0,1.9042,0.0012,403.35,0.39,163.0,35.9,138.12,28.21,24.62,36.32,0.04,-272.74,-272.74,-54,560,-939,22.7,3.6,-22.8,22.9,3.7,-22.3,5.73,2.29,-25.3,27.9
2012-05-01 01:35:00,0.0,1.9044,0.0009,403.30,0.35,179.2,39.1,138.11,28.21,24.62,36.33,0.04,-272.73,-272.74,-54,560,-939,22.7,3.6,-22.7,22.9,3.7,-22.3,5.73,2.45,-25.3,28.0
2012-05-01 01:36:00,0.0,1.9046,0.0012,403.23,0.38,173.5,35.0,138.11,28.22,24.62,36.33,0.04,-272.74,-272.73,-54,560,-939,22.8,3.5,-22.8,23.0,3.6,-22.3,5.73,2.41,-25.2,28.0
2012-05-01 01:37:00,0.0,1.9045,0.0011,403.18,0.37,166.1,41.9,138.11,28.23,24.62,36.33,0.04,-272.74,-272.74,-54,560,-939,22.8,3.5,-22.8,23.0,3.6,-22.3,5.73,2.31,-25.2,28.0
2012-05-01 01:38:00,0.0,1.9050,0.0008,403.25,0.42,166.8,41.3,138.11,28.23,24.61,36.33,0.04,-272.74,-272.74,-54,560,-939,22.8,3.6,-22.7,23.0,3.7,-22.3,5.73,2.49,-25.2,28.0
2012-05-01 01:39:00,0.0,1.9045,0.0011,403.35,0.37,169.0,36.6,138.11,28.24,24.62,36.32,0.04,-272.73,-272.73,-54,560,-939,22.9,3.6,-22.7,23.0,3.7,-22.2,5.73,2.32,-25.2,28.1
2012-05-01 01:40:00,0.0,1.9048,0.0011,403.25,0.34,174.4,45.1,138.11,28.25,24.61,36.33,0.04,-272.74,-272.74,-54,560,-939,22.9,3.6,-22.7,23.1,3.7,-22.2,5.73,2.38,-25.2,28.2
2012-05-01 01:41:00,0.0,1.9050,0.0010,403.33,0.35,174.2,41.9,138.11,28.26,24.62,36.32,0.04,-272.74,-272.74,-54,561,-939,22.9,3.6,-22.7,23.1,3.7,-22.2,5.73,2.46,-25.1,28.2
2012-05-01 01:42:00,0.0,1.9048,0.0011,403.24,0.36,170.5,39.7,138.11,28.26,24.62,36.33,0.04,-272.73,-272.73,-54,561,-939,22.9,3.5,-22.7,23.1,3.6,-22.2,5.73,2.29,-25.1,28.2
2012-05-01 01:43:00,0.0,1.9048,0.0011,403.21,0.40,170.7,41.1,138.11,28.27,24.62,36.33,0.04,-272.73,-272.74,-54,561,-939,22.9,3.5,-22.7,23.1,3.6,-22.3,5.73,2.46,-25.1,28.3
2012-05-01 01:44:00,0.0,1.9048,0.0011,403.28,0.34,181.3,40.7,138.11,28.28,24.62,36.33,0.04,-272.74,-272.74,-54,561,-939,23.0,3.5,-22.6,23.1,3.6,-22.2,5.73,2.39,-25.1,28.3
2012-05-01 01:45:00,0.0,1.9049,0.0010,403.32,0.41,184.0,44.2,138.11,28.29,24.62,36.33,0.04,-272.73,-272.74,-54,561,-939,23.0,3.6,-22.5,23.1,3.7,-22.1,5.73,2.32,-25.1,28.1
2012-05-01 01:46:00,0.0,1.9049,0.0009,403.35,0.36,175.7,44.8,138.11,28.29,24.62,36.32,0.04,-272.73,-272.73,-54,561,-939,23.0,3.6,-22.5,23.1,3.7,-22.0,5.73,2.45,-25.2,27.5
2012-05-01 01:47:00,0.0,1.9045,0.0010,403.39,0.33,156.1,39.2,138.12,28.29,24.62,36.33,0.04,-272.73,-272.74,-55,562,-940,23.0,3.6,-22.5,23.1,3.7,-22.0,5.73,2.46,-25.4,26.9
2012-05-01 01:48:00,0.0,1.9051,0.0009,403.42,0.42,127.9,32.7,138.12,28.29,24.61,36.33,0.04,-272.74,-272.74,-54,561,-940,22.9,3.6,-22.4,23.0,3.7,-22.0,5.73,2.38,-25.6,26.6
2012-05-01 01:49:00,0.0,1.9049,0.0010,403.33,0.39,117.2,37.4,138.13,28.28,24.61,36.32,0.04,-272.73,-272.74,-55,561,-940,22.9,3.6,-22.5,23.0,3.7,-22.1,5.73,2.37,-25.8,26.5
2012-05-01 01:50:00,0.0,1.9050,0.0011,403.25,0.39,112.1,40.7,138.14,28.26,24.61,36.32,0.04,-272.74,-272.74,-55,561,-940,22.8,3.6,-22.5,22.9,3.7,-22.1,5.73,2.38,-26.0,26.0
2012-05-01 01:51:00,0.0,1.9047,0.0010,403.11,0.38,99.1,37.6,138.14,28.24,24.62,36.32,0.04,-272.74,-272.74,-55,560,-939,22.8,3.7,-22.4,22.8,3.8,-22.0,5.73,2.39,-26.1,25.8
2012-05-01 01:52:00,0.0,1.9044,0.0012,402.80,0.35,80.4,38.9,138.15,28.22,24.62,36.33,0.04,-272.74,-272.74,-55,560,-940,22.7,3.7,-22.2,22.7,3.9,-21.8,5.73,2.40,-26.1,25.6
2012-05-01 01:53:00,0.0,1.9036,0.0010,402.92,0.37,67.2,38.2,138.15,28.19,24.62,36.31,0.04,-272.74,-272.73,-55,560,-940,22.6,3.8,-22.1,22.7,3.9,-21.7,5.73,2.40,-26.5,25.3
2012-05-01 01:54:00,0.0,1.9031,0.0010,402.75,0.33,50.7,40.9,138.15,28.16,24.61,36.32,0.04,-272.74,-272.74,-55,560,-940,22.6,3.8,-22.3,22.6,3.9,-21.9,5.73,2.36,-26.6,25.8
2012-05-01 01:55:00,0.0,1.9026,0.0011,402.71,0.36,63.2,39.2,138.16,28.14,24.62,36.32,0.04,-272.74,-272.73,-55,559,-939,22.5,3.8,-22.2,22.5,3.9,-21.9,5.73,2.40,-26.6,26.3
2012-05-01 01:56:00,0.0,1.9028,0.0011,402.93,0.32,54.9,33.6,138.15,28.12,24.61,36.31,0.04,-272.74,-272.73,-55,559,-939,22.5,3.8,-22.2,22.5,3.9,-21.8,5.73,2.50,-26.6,26.6
2012-05-01 01:57:00,0.0,1.9027,0.0010,402.71,0.34,61.1,34.8,138.15,28.10,24.61,36.31,0.04,-272.74,-272.73,-55,559,-939,22.5,3.8,-22.3,22.5,3.9,-21.9,5.73,2.28,-26.5,26.9
2012-05-01 01:58:00,0.0,1.9031,0.0010,402.65,0.35,76.2,42.8,138.14,28.09,24.61,36.32,0.04,-272.74,-272.74,-55,559,-939,22.4,3.7,-22.4,22.5,3.8,-22.0,5.73,2.51,-26.4,27.0
2012-05-01 01:59:00,0.0,1.9029,0.0010,402.86,0.35,85.4,40.6,138.14,28.09,24.61,36.31,0.04,-272.73,-272.74,-55,558,-939,22.4,3.7,-22.5,22.6,3.8,-22.1,5.73,2.28,-26.3,27.1
2012-05-01 02:00:00,0.0,1.9032,0.0010,402.82,0.32,83.9,36.7,138.14,28.08,24.61,36.31,0.04,-272.73,-272.73,-55,558,-939,22.4,3.7,-22.6,22.6,3.8,-22.1,5.73,2.51,-26.3,27.2
2012-05-01 02:01:00,0.0,1.9033,0.0009,402.84,0.34,92.3,42.4,138.14,28.08,24.62,36.32,0.04,-272.73,-272.74,-55,558,-939,22.4,3.7,-22.6,22.6,3.8,-22.1,5.73,2.30,-26.2,27.2
2012-05-01 02:02:00,0.0,1.9034,0.0011,402.92,0.37,98.9,44.5,138.13,28.08,24.61,36.32,0.04,-272.73,-272.74,-55,558,-939,22.4,3.7,-22.5,22.6,3.8,-22.0,5.73,2.47,-26.2,27.3
2012-05-01 02:03:00,0.0,1.9035,0.0008,403.01,0.31,103.7,37.3,138.13,28.08,24.61,36.32,0.04,-272.74,-272.74,-54,558,-939,22.4,3.7,-22.6,22.6,3.8,-22.1,5.73,2.36,-26.1,27.3
2012-05-01 02:04:00,0.0,1.9037,0.0012,403.14,0.31,107.1,33.5,138.13,28.08,24.62,36.31,0.04,-272.74,-272.74,-56,556,-936,22.4,3.7,-22.5,22.6,3.8,-22.1,5.73,2.39,-26.1,27.4
2012-05-01 02:05:00,0.0,1.9038,0.0008,403.08,0.39,126.5,44.4,138.13,28.08,24.61,36.32,0.04,-272.73,-272.74,-52,558,-940,22.4,3.7,-22.4,22.6,3.8,-22.0,5.73,2.45,-26.0,27.4
2012-05-01 02:06:00,0.0,1.9039,0.0011,403.13,0.38,115.3,44.7,138.13,28.09,24.61,36.32,0.04,-272.74,-272.74,-54,558,-938,22.4,3.7,-22.5,22.7,3.8,-22.0,5.73,2.30,-26.0,27.5
2012-05-01 02:07:00,0.0,1.9039,0.0011,403.23,0.33,129.1,39.0,138.13,28.09,24.61,36.32,0.04,-272.74,-272.74,-54,558,-939,22.4,3.7,-22.6,22.7,3.8,-22.2,5.73,2.50,-25.9,27.6
2012-05-01 02:08:00,0.0,1.9038,0.0010,403.21,0.40,132.5,39.9,138.13,28.10,24.61,36.32,0.04,-272.74,-272.74,-54,559,-938,22.5,3.6,-22.7,22.7,3.8,-22.2,5.73,2.31,-25.8,27.5
2012-05-01 02:09:00,0.0,1.9041,0.0010,403.24,0.33,136.0,38.6,138.12,28.11,24.61,36.32,0.04,-272.74,-272.74,-54,557,-937,22.5,3.7,-22.6,22.7,3.8,-22.2,5.73,2.43,-25.8,27.6
2012-05-01 02:10:00,0.0,1.9039,0.0011,403.27,0.37,143.0,39.5,138.12,28.11,24.61,36.32,0.04,-272.74,-272.74,-58,558,-940,22.5,3.7,-22.6,22.7,3.8,-22.1,5.73,2.42,-25.8,27.6
2012-05-01 02:11:00,0.0,1.9042,0.0010,403.22,0.37,141.0,37.8,138.12,28.12,24.61,36.32,0.04,-272.74,-272.74,-55,558,-938,22.5,3.6,-22.7,22.7,3.7,-22.2,5.73,2.31,-25.7,27.7
2012-05-01 02:12:00,0.0,1.9046,0.0011,403.29,0.32,148.9,41.4,138.12,28.13,24.61,36.32,0.04,-272.74,-272.74,-54,558,-939,22.6,3.6,-22.7,22.7,3.7,-22.2,5.73,2.49,-25.7,27.7
2012-05-01 02:13:00,0.0,1.9043,0.0011,403.31,0.37,144.5,35.5,138.12,28.13,24.61,36.32,0.04,-272.74,-272.74,-55,559,-939,22.6,3.6,-22.6,22.8,3.7,-22.2,5.73,2.31,-25.6,27.7
2012-05-01 02:14:00,0.0,1.9041,0.0012,403.34,0.32,150.2,41.7,138.12,28.14,24.61,36.32,0.04,-272.74,-272.74,-54,558,-939,22.6,3.6,-22.6,22.8,3.7,-22.2,5.73,2.42,-25.6,27.8
2012-05-01 02:15:00,0.0,1.9040,0.0009,403.24,0.36,154.6,36.7,138.12,28.15,24.62,36.33,0.04,-272.74,-272.73,-54,558,-939,22.6,3.7,-22.5,22.8,3.7,-22.1,5.73,2.43,-25.6,27.8
2012-05-01 02:16:00,0.0,1.9042,0.0009,403.38,0.36,156.9,35.3,138.12,28.15,24.61,36.32,0.04,-272.73,-272.73,-54,558,-939,22.6,3.6,-22.6,22.8,3.7,-22.1,5.73,2.30,-25.5,27.8
2012-05-01 02:17:00,0.0,1.9039,0.0012,403.40,0.40,160.7,40.0,138.12,28.16,24.62,36.32,0.04,-272.74,-272.74,-54,559,-939,22.7,3.6,-22.7,22.8,3.7,-22.2,5.73,2.48,-25.5,27.9